DAL2194 KMYR-KBWI

Flight info

Callsign DAL2194
Flight time N/A
Altitude 37000
Route ZORDO Q111 RUKRR THHMP RAVNN8
Aircraft B738/M-SDE2E3FGHIRWXY/LB1

Departure

Time 2026-04-20 19:59
Airport Myrtle Beach International Airport (KMYR)

Arrival

Time N/A
Airport Baltimore/Washington International Thurgood Marshall Airport (KBWI)
Time Latitude Longitude Altitude Speed Heading
2026-04-20 19:37 33.68076 -78.92421 26 ft 0 kts 169°
2026-04-20 19:49 33.68080 -78.92422 25 ft 2 kts 169°
2026-04-20 19:49 33.68095 -78.92425 26 ft 2 kts 169°
2026-04-20 19:49 33.68110 -78.92428 25 ft 2 kts 169°
2026-04-20 19:49 33.68125 -78.92431 26 ft 2 kts 180°
2026-04-20 19:50 33.68140 -78.92429 26 ft 2 kts 189°
2026-04-20 19:50 33.68153 -78.92426 25 ft 0 kts 198°
2026-04-20 19:50 33.68158 -78.92423 25 ft 0 kts 200°
2026-04-20 19:53 33.68138 -78.92436 26 ft 3 kts 231°
2026-04-20 19:53 33.68123 -78.92506 26 ft 13 kts 256°
2026-04-20 19:54 33.68097 -78.92635 25 ft 13 kts 266°
2026-04-20 19:54 33.68119 -78.92661 25 ft 6 kts 337°
2026-04-20 19:54 33.68223 -78.92688 25 ft 23 kts 348°
2026-04-20 19:54 33.68391 -78.92731 25 ft 24 kts 347°
2026-04-20 19:55 33.68554 -78.92775 26 ft 23 kts 347°
2026-04-20 19:55 33.68708 -78.92815 25 ft 21 kts 349°
2026-04-20 19:55 33.68850 -78.92851 25 ft 20 kts 353°
2026-04-20 19:55 33.68991 -78.92854 22 ft 20 kts 12°
2026-04-20 19:56 33.69124 -78.92874 22 ft 18 kts 348°
2026-04-20 19:56 33.69241 -78.92903 22 ft 9 kts 348°
2026-04-20 19:56 33.69275 -78.92928 22 ft 4 kts 250°
2026-04-20 19:56 33.69269 -78.92960 22 ft 3 kts 258°
2026-04-20 19:57 33.69264 -78.92986 22 ft 2 kts 257°
2026-04-20 19:57 33.69259 -78.93011 22 ft 4 kts 257°
2026-04-20 19:57 33.69244 -78.93103 22 ft 10 kts 244°
2026-04-20 19:57 33.69188 -78.93129 22 ft 8 kts 170°
2026-04-20 19:58 33.69003 -78.93087 22 ft 60 kts 168°
2026-04-20 19:58 33.68351 -78.92928 26 ft 127 kts 168°
2026-04-20 19:58 33.67310 -78.92686 134 ft 168 kts 169°
2026-04-20 19:58 33.66108 -78.92413 559 ft 190 kts 169°
2026-04-20 19:59 33.64717 -78.92047 851 ft 223 kts 166°
2026-04-20 19:59 33.63015 -78.91504 539 ft 284 kts 163°
2026-04-20 19:59 33.61068 -78.90700 1089 ft 303 kts 159°
2026-04-20 19:59 33.59216 -78.89651 2257 ft 300 kts 141°